Regional Weather Roundup
Issued by NWS

Home | Current Version | Previous Version | Graphics & Text | Print | Product List | Glossary On
Versions: 1 2 3 4 5 6 7 8 9 10 11 12 13 14 15 16 17 18 19 20 21 22 23 24 25 26 27 28 29 30 31 32 33 34 35 36 37 38 39 40 41 42 43 44 45 46 47 48 49 50
000
ASUS43 KMPX 241010
RWRMN
WEATHER ROUNDUP FOR MINNESOTA
NATIONAL WEATHER SERVICE TWIN CITIES/CHANHASSEN MN
500 AM CDT THU JUL 24 2014


NOTE: "FAIR" INDICATES FEW OR NO CLOUDS BELOW 12,000 FEET WITH NO
SIGNIFICANT WEATHER AND/OR OBSTRUCTIONS TO VISIBILITY. N/A MEANS
CURRENT SKY AND/OR WEATHER CONDITIONS ARE NOT AVAILABLE.

MNZ060>063-068>070-241100-
   Twin Cities Metro

CITY           SKY/WX    TMP DP  RH WIND       PRES   REMARKS
TWIN CITIES    PTCLDY    65  57  75 E5        30.16S
ST PAUL        CLEAR     62  57  83 CALM      30.17R
CRYSTAL        CLEAR     59  55  87 CALM      30.15S
BLAINE         CLEAR     57  57 100 CALM      30.16F
LAKEVILLE      CLEAR     54  54 100 CALM      30.17S
EDEN PRAIRIE   CLEAR     61  60  97 CALM      30.16R
SOUTH ST PAUL  CLEAR     60  56  85 CALM      30.17R
LAKE ELMO      FAIR      54  54 100 CALM      30.18S
$$
MNZ001>005-007-008-013>017-022>024-027-028-241100-
   Northwest Minnesota

CITY           SKY/WX    TMP DP  RH WIND       PRES   REMARKS
BEMIDJI          N/A     50  50  99 CALM      30.16F FOG
HALLOCK        PTCLDY    57  52  82 SE6       30.12S
ROSEAU         CLEAR     48  45  87 CALM      30.15S
WARROAD        PTCLDY    50  46  87 CALM      30.16S
THIEF RVR FALL PTCLDY    55  52  88 E5        30.13F
CROOKSTON      MOCLDY    57  54  88 SE5       30.13F
FOSSTON        PTCLDY    54  48  82 CALM      30.15F
DETROIT LAKES  PTCLDY    61  55  82 CALM      30.16F
MOORHEAD       MOCLDY    63  63 100 SE3       30.13S
PARK RAPIDS    PTCLDY    53  51  93 CALM      30.17S
$$
MNZ006-009>011-018-025>026-241100-
   North Central Minnesota

CITY           SKY/WX    TMP DP  RH WIND       PRES   REMARKS
BAUDETTE       PTCLDY    53  52  96 CALM      30.17S
FLAG ISLAND    MOCLDY    64  55  72 S5        30.14S
INTL FALLS     PTCLDY    47  45  93 CALM      30.17F
WASKISH        CLEAR     52  50  93 CALM      30.16S
BIG FORK       CLEAR     48  46  93 CALM      30.19R
LONGVILLE      CLEAR     50  48  93 CALM      30.17S
GRAND RAPIDS   CLEAR     54  48  82 S3        30.18S
CRANE LAKE     CLEAR     43  43 100 CALM      30.20S
ORR            CLEAR     50  48  93 CALM      30.16F
COOK           CLEAR     45  43  93 CALM      30.19F
$$
MNZ012-019>021-037-241100-
   Northeast Minnesota

CITY           SKY/WX    TMP DP  RH WIND       PRES   REMARKS
DULUTH         CLOUDY    57  51  80 CALM      30.19S
HIBBING        CLEAR     45  43  93 CALM      30.18F
EVELETH        PTCLDY    45  43  93 CALM      30.20F
DULUTH HARBOR  CLOUDY    57  54  88 CALM      30.19S
TWO HARBORS    CLEAR     46  43  87 CALM      30.18R
SILVER BAY     CLEAR     41  41 100 CALM      30.18S
GRAND MARAIS     N/A     48  46  93 CALM      30.16S
G MARAIS ARPRT CLEAR     41  37  87 W3        30.20R
$$
MNZ029>031-032-039>041-046>048-054>057-064-241100-
   West Central Minnesota

CITY           SKY/WX    TMP DP  RH WIND       PRES   REMARKS
FERGUS FALLS   MOCLDY    63  54  72 E5        30.14S
WHEATON        MOCLDY    57  55  94 SE7       30.14F
MORRIS         PTCLDY    55  55 100 SE5       30.14S
ALEXANDRIA     PTCLDY    59  56  89 SE5       30.17F
ELBOW LAKE     FAIR      63  57  81 SE7       30.15S
WADENA         PTCLDY    52  50  93 CALM      30.16F
GLENWOOD       PTCLDY    55  54  94 E5        30.17S
APPLETON       PTCLDY    57  55  94 CALM      30.14F
BENSON         CLEAR     57  55  94 SE3       30.15F
ORTONVILLE     PTCLDY    61  55  82 CALM      30.13F
MADISON        PTCLDY    57  55  94 CALM      30.14F
WILLMAR        FAIR      57  54  88 CALM      30.17F
$$
MNZ033>034-036-042>043-049>051-058-059-241100-
   Central Minnesota

CITY           SKY/WX    TMP DP  RH WIND       PRES   REMARKS
ST CLOUD       CLEAR     54  51  90 CALM      30.16F
SAUK CENTRE    FAIR      53  53  99 CALM      30.17F FOG
PAYNESVILLE    CLEAR     49  49 100 CALM      30.17F
AITKIN         MOCLDY    52  45  76 CALM      30.17R HAZE
PINE RIVER     MOCLDY    50  50 100 CALM      30.20S FOG
BRAINERD       MOCLDY    50  50 100 CALM      30.18S FOG
STAPLES        PTCLDY    54  52  94 CALM      30.17S
LONG PRAIRIE   FAIR      54  52  94 CALM      30.18S
LITTLE FALLS   PTCLDY    52  50  93 CALM      30.17F
LITCHFIELD       N/A     57  57 100 CALM      30.18R
BUFFALO        CLEAR     56  53  88 CALM      30.18S
MAPLE LAKE     CLEAR     55  55  98 CALM      30.17F
$$
MNZ037-044-045-052-053-241100-
   East Central Minnesota

CITY           SKY/WX    TMP DP  RH WIND       PRES   REMARKS
PRINCETON      FOG       54  52  94 CALM      30.16F VSB 1/2
MORA             N/A     54  52  94 CALM      30.19S FOG
CAMBRIDGE      CLEAR     54  46  76 CALM      30.15F
RUSH CITY      MOCLDY    54  53  96 CALM      30.18S
MOOSE LAKE     PTCLDY    54  52  94 NE3       30.17S
HINCKLEY       FAIR      54  54 100 CALM      30.18S
CLOQUET        CLOUDY    57  54  88 CALM      30.18F
MCGREGOR       PTCLDY    52  50  93 CALM      30.18S
$$
MNZ071>073-080-081-089-090-097-098-241100-
   Southwest Minnesota

CITY           SKY/WX    TMP DP  RH WIND       PRES   REMARKS
MONTEVIDEO     CLEAR     57  55  94 S3        30.15F
GRANITE FALLS  CLEAR     58  53  85 CALM      30.17F
CANBY          PTCLDY    58  55  89 S3        30.15F
MARSHALL       PTCLDY    59  52  77 S5        30.14F
REDWOOD FALLS  CLEAR     58  55  90 CALM      30.15F
OLIVIA         CLEAR     55  50  82 CALM      30.15F
PIPESTONE      PTCLDY    61  54  77 SE6       30.15F
WINDOM         PTCLDY    55  52  88 CALM      30.17S
WORTHINGTON    CLEAR     55  52  88 CALM      30.17F
JACKSON        CLEAR     55  52  88 CALM      30.17S
TRACY          CLEAR     64  50  61 S5        30.16S
SLAYTON        PTCLDY    58  54  85 CALM      30.17F
$$
MNZ065>067-074>077-082>085-091>093-241100-
   South Central Minnesota

CITY           SKY/WX    TMP DP  RH WIND       PRES   REMARKS
MANKATO        CLEAR     59  48  67 CALM      30.16S
NEW ULM        CLEAR     55  54  94 CALM      30.16S
ST JAMES       CLEAR     54  52  94 CALM      30.17S
FAIRMONT       CLEAR     55  50  82 CALM      30.17R
GLENCOE        CLEAR     57  52  84 CALM      30.16S
FARIBAULT      CLEAR     55  48  76 CALM      30.18R
OWATONNA       CLEAR     55  54  94 E3        30.17S
WASECA         CLEAR     52  46  82 CALM      30.19R
ALBERT LEA     CLEAR     55  54  94 CALM      30.17S
$$
MNZ078>079-086>088-094>096-241100-
   Southeast Minnesota

CITY           SKY/WX    TMP DP  RH WIND       PRES   REMARKS
ROCHESTER      CLEAR     59  53  80 CALM      30.19S
RED WING       CLEAR     55  54  94 CALM      30.17R
STANTON        CLEAR     54  52  92 CALM      30.16R
DODGE CENTER   CLEAR     57  54  88 CALM      30.18S
WINONA         CLEAR     55  55 100 NW3       30.18R
AUSTIN         CLEAR     55  54  94 CALM      30.17S
PRESTON        CLEAR     59  58  96 CALM      30.18S
$$
ABBREVIATIONS USED IN REMARKS
   TC - TEMPERATURES IN CELSIUS
  WCI - WIND CHILL INDEX
   HX - HEAT INDEX
  VSB - VISIBILITY
$$


USA.gov is the U.S. government's official web portal to all federal, state and local government web resources and services.